GALAXY 36

导读 | 豆包AI

GALAXY 36(银河36)是美国国际通信卫星组织运营的地球同步通信卫星,于2022年12月13日在法属圭亚那库鲁航天发射场,由阿丽亚娜-5型火箭与GALAXY 35、MTG—I1气象卫星一同发射入轨。它由Maxar建造,旨在接替老旧的GALAXY 28卫星,为北美地区提供广播电视赛事直播、突发新闻传播等通信服务,目前仍在轨正常运行。

基本信息
目录编号:
54742
目录名称:
GALAXY 36
国际标识:
2022-170B
轨道中心:
EARTH
卫星名称:
GALAXY 36
卫星全名:
--
卫星状态:
在轨 (已飞行1187 天)
发射日期:
2022-12-13 UTC
国别 :
美国 (US)
星等 :
--
轨道信息
数据来源 国际轨道数据 AOE轨道数据
星历时间 2026-03-14T05:49:03+0800
6小时前
查看轨道信息
2026-03-12T18:00:00+0800
1天前
查看轨道信息
半长轴 42164.616km 42164.42km
偏心率 0.0002291 0.0002288
轨道倾角 0.013° 0.014°
近地点辐角 223.695° 222.075°
升交点赤经 183.866° 183.664°
平近点角 2.226° 185.312°
近地点 35776.819km 35776.635km
远地点 35796.139km 35795.931km
周期 1436.091分钟 1436.081分钟
每日圈数 1.002722 1.002729
详细信息
使用方式:
暂无
2D轨道图
3D轨道图
轨道高度分析图
轨道倾角分析图
轨道综合分析图
查看轨道综合分析图